TimeAKST,TemperatureF,Dew PointF,Humidity,Sea Level PressureIn,VisibilityMPH,Wind Direction,Wind SpeedMPH,Gust SpeedMPH,PrecipitationIn,Events,Conditions,WindDirDegrees,DateUTC
12:58 AM,1.2,-3.1,82,29.54,10.0,Calm,Calm,-,N/A,,Overcast,0,2013-11-22 09:58:00
1:58 AM,2.8,-1.1,84,29.51,10.0,Calm,Calm,-,N/A,,Mostly Cloudy,0,2013-11-22 10:58:00
2:58 AM,4.3,0.3,84,29.49,10.0,East,4.6,-,N/A,,Mostly Cloudy,90,2013-11-22 11:58:00
3:58 AM,8.4,5.0,86,29.44,10.0,Variable,5.8,-,N/A,,Partly Cloudy,0,2013-11-22 12:58:00
4:58 AM,10.4,5.4,80,29.40,10.0,NNE,5.8,-,0.00,,Overcast,20,2013-11-22 13:58:00
5:58 AM,8.8,3.9,81,29.37,10.0,Variable,1.2,-,0.00,,Overcast,0,2013-11-22 14:58:00
6:58 AM,15.4,8.2,73,29.35,10.0,ESE,10.4,-,N/A,,Overcast,120,2013-11-22 15:58:00
7:58 AM,8.8,3.6,79,29.36,10.0,NNE,6.9,-,N/A,,Overcast,20,2013-11-22 16:58:00
8:58 AM,9.3,4.1,79,29.35,10.0,North,6.9,-,N/A,,Overcast,360,2013-11-22 17:58:00
9:58 AM,9.7,4.6,80,29.34,10.0,North,1.2,-,N/A,,Mostly Cloudy,360,2013-11-22 18:58:00
10:58 AM,10.0,5.5,82,29.32,10.0,NNW,6.9,-,N/A,,Overcast,340,2013-11-22 19:58:00
11:58 AM,11.7,6.6,80,29.31,10.0,Variable,5.8,-,N/A,,Overcast,0,2013-11-22 20:58:00
12:01 PM,12.2,6.8,79,29.26,10.0,North,5.8,-,N/A,,Overcast,350,2013-11-22 21:01:00
12:58 PM,13.1,7.2,77,29.30,10.0,NNE,1.2,-,N/A,,Mostly Cloudy,20,2013-11-22 21:58:00
1:58 PM,10.6,5.9,81,29.28,10.0,North,5.8,-,N/A,,Mostly Cloudy,10,2013-11-22 22:58:00
2:58 PM,11.5,6.8,81,29.27,10.0,NNE,5.8,-,N/A,,Mostly Cloudy,20,2013-11-22 23:58:00
3:58 PM,12.9,7.5,79,29.26,10.0,North,2.3,-,N/A,,Mostly Cloudy,360,2013-11-23 00:58:00
4:58 PM,8.2,4.8,86,29.27,10.0,NNW,3.5,-,N/A,,Scattered Clouds,330,2013-11-23 01:58:00
5:58 PM,3.9,-0.0,84,29.28,10.0,Calm,Calm,-,N/A,,Partly Cloudy,0,2013-11-23 02:58:00
6:43 PM,5.0,1.4,85,29.22,6.0,NNW,5.8,-,N/A,,Clear,330,2013-11-23 03:43:00
6:55 PM,6.8,3.2,85,29.26,7.0,NNW,4.6,-,N/A,,Partly Cloudy,330,2013-11-23 03:55:00
7:55 PM,-0.4,-4.0,85,29.26,10.0,Calm,Calm,-,N/A,,Partly Cloudy,0,2013-11-23 04:55:00
8:58 PM,7.9,4.3,85,29.33,10.0,Calm,Calm,-,N/A,,Partly Cloudy,0,2013-11-23 05:58:00
9:56 PM,5.0,-0.4,78,29.33,10.0,Variable,6.9,-,N/A,,Partly Cloudy,0,2013-11-23 06:56:00
9:58 PM,4.8,0.1,81,29.38,10.0,SW,6.9,-,N/A,,Scattered Clouds,230,2013-11-23 06:58:00
10:58 PM,5.0,0.5,82,29.44,10.0,Variable,4.6,-,N/A,,Overcast,0,2013-11-23 07:58:00
11:13 PM,5.0,1.4,85,29.40,10.0,Variable,5.8,-,N/A,,Overcast,0,2013-11-23 08:13:00
11:58 PM,5.9,1.4,82,29.47,5.0,Variable,5.8,-,0.00,Snow,Light Snow,0,2013-11-23 08:58:00